sat.trackr.live / text

‹ back to catalog

OPTUS C1

NORAD 27831 · 2003-028B

PAYLOAD ACTIVE UNKNOWN

§ Identity

Operator
Country
AUS
Launch date
2003-06-11
Launch site
FRGUI
Launch vehicle
Mass (kg)
RCS (m²)
25.12

Purposes: comms

External: N2YO · Heavens-Above · Gunter

§ Orbital elements

Epoch: 2026-05-24T16:27:38.727360Z

Period
1,436.10 min
Inclination
6.8338°
Eccentricity
0.0005876
Mean motion
1.00271646 rev/d
Perigee alt
35,761.9 km
Apogee alt
35,811.4 km
Semi-major
42,164.8 km
B*
0.0000e+0
RAAN
69.6917°
Arg perigee
348.0689°
Mean anomaly
227.1709°
Rev number
5,282

§ Raw data

OPTUS C11 27831U 03028B   26144.68586490 -.00000154  00000+0  00000+0 0  99962 27831   6.8338  69.6917 0005876 348.0689 227.1709  1.00271646 52825

JSON: /api/v1/satellites/27831 · /tle

For live sub-satellite position, see the globe view (requires WebGL).

§ Visibility from observer

Set your observer location to see the next 7 days of passes ≥ 10°. The values pass through the URL so the page stays shareable.

No JS? Fill the form by hand. The geolocation button needs JavaScript.